Left ArrowRight Arrow

31.31129, -92.44514

Hourly Observations for March 15, 2016

Temp ( °F °C ) Dew Point ( °F °C ) Humidity (%) Winds ( mph kmh ) Pressure ( in mb ) Visibility ( mi km ) Precip ( " mm )
12:53 am 00:53 Clear 64 17.8 62 16.7 93 93 S 8 13 29.82 1010 8 13 0.00 0.00
1:53 am 01:53 Mostly Clear 63 17.2 61 16.1 93 93 S 7 11 29.83 1010 7 11 0.00 0.00
2:08 am 02:08 Mostly Cloudy 64 17.8 62 16.7 93 93 S 7 11 29.83 1010 8 13 0.00 0.00
2:53 am 02:53 Partly Cloudy 63 17.2 62 16.7 97 97 S 8 13 29.82 1010 8 13 0.00 0.00
3:24 am 03:24 Mostly Cloudy 63 17.2 61 16.1 93 93 S 8 13 29.80 1009 8 13 0.00 0.00
3:53 am 03:53 Mostly Cloudy 64 17.8 61 16.1 90 90 S 10 17 29.81 1009 8 13 0.00 0.00
4:53 am 04:53 Mostly Cloudy 64 17.8 61 16.1 90 90 S 10 17 29.80 1009 8 13 0.00 0.00
5:11 am 05:11 Partly Cloudy 64 17.8 61 16.1 90 90 S 12 19 29.80 1009 8 13 0.00 0.00
5:29 am 05:29 Mostly Cloudy 64 17.8 61 16.1 90 90 S 9 15 29.80 1009 8 13 0.00 0.00
5:53 am 05:53 Cloudy 64 17.8 62 16.7 93 93 S 12 19 29.80 1009 8 13 0.00 0.00
6:53 am 06:53 Cloudy 64 17.8 62 16.7 93 93 S 9 15 29.81 1009 8 13 0.00 0.00
7:53 am 07:53 Cloudy with Mist and Fog 65 18.3 62 16.7 90 90 S 14 22 29.82 1010 6 10 0.00 0.00
8:21 am 08:21 Cloudy with Mist and Fog 66 18.9 62 16.7 87 87 S 13 20 29.83 1010 6 10 0.00 0.00
8:53 am 08:53 Cloudy with Haze 67 19.4 62 16.7 84 84 SSW 16 26 29.84 1011 6 10 0.00 0.00
9:22 am 09:22 Hazy 69 20.6 63 17.2 81 81 SSW 13 20 29.83 1010 6 10 0.00 0.00
9:53 am 09:53 Hazy 70 21.1 63 17.2 79 79 S 18 30 29.85 1011 6 10 0.00 0.00
10:53 am 10:53 Hazy 73 22.8 64 17.8 74 74 S 16 26 29.85 1011 5 8 0.00 0.00
11:53 am 11:53 Hazy 76 24.4 64 17.8 67 67 S 14 22 29.84 1011 5 8 0.00 0.00
12:53 pm 12:53 Hazy 79 26.1 64 17.8 60 60 S 14 22 29.83 1010 6 10 0.00 0.00
1:53 pm 13:53 Hazy 81 27.2 63 17.2 54 54 SSW 16 26 29.80 1009 6 10 0.00 0.00
2:53 pm 14:53 Sunny 82 27.8 63 17.2 53 53 SSW 17 28 29.78 1008 7 11 0.00 0.00
3:53 pm 15:53 Sunny 81 27.2 63 17.2 54 54 S 15 24 29.77 1008 8 13 0.00 0.00
4:53 pm 16:53 Sunny 81 27.2 62 16.7 53 53 SSW 18 30 29.77 1008 8 13 0.00 0.00
5:53 pm 17:53 Sunny 79 26.1 64 17.8 60 60 S 18 30 29.78 1008 7 11 0.00 0.00
6:53 pm 18:53 Hazy 76 24.4 64 17.8 67 67 S 15 24 29.78 1009 6 10 0.00 0.00
7:53 pm 19:53 Clear 73 22.8 65 18.3 76 76 SSW 12 19 29.81 1010 7 11 0.00 0.00
8:53 pm 20:53 Hazy 72 22.2 65 18.3 79 79 SSW 9 15 29.84 1011 6 10 0.00 0.00
9:53 pm 21:53 Hazy 71 21.7 66 18.9 84 84 SSW 12 19 29.88 1012 5 8 0.00 0.00
10:53 pm 22:53 Hazy 71 21.7 66 18.9 84 84 SW 9 15 29.90 1012 5 8 0.00 0.00
11:53 pm 23:53 Clear with Mist and Fog 70 21.1 66 18.9 87 87 SSW 6 9 29.90 1013 5 8 0.00 0.00

Powered by Vaisala Xweather